MDT,Max TemperatureF,Mean TemperatureF,Min TemperatureF,Max Dew PointF,MeanDew PointF,Min DewpointF,Max Humidity, Mean Humidity, Min Humidity, Max Sea Level PressureIn, Mean Sea Level PressureIn, Min Sea Level PressureIn, Max VisibilityMiles, Mean VisibilityMiles, Min VisibilityMiles, Max Wind SpeedMPH, Mean Wind SpeedMPH, Max Gust SpeedMPH,PrecipitationIn, CloudCover, Events, WindDirDegrees
2013-10-1,62,46,30,36,31,25,100,64,27,30.15,30.08,30.01,10,10,10,17,4,25,0.00,3,,244
2013-10-2,53,42,32,39,33,30,100,78,41,30.11,30.05,29.94,10,10,2,21,6,26,0.00,5,Rain,296
2013-10-3,37,32,28,34,31,27,100,91,70,30.01,29.91,29.84,10,8,0,18,5,25,0.00,8,Rain-Snow,281
2013-10-4,33,30,26,30,27,21,100,87,74,30.35,30.22,30.00,10,8,1,17,7,26,0.00,6,Snow,294
2013-10-5,46,34,23,28,23,16,100,66,45,30.39,30.36,30.33,10,10,1,31,13,38,0.00,1,,299
2013-10-6,60,44,28,32,28,27,93,62,27,30.43,30.38,30.34,10,10,7,26,12,33,0.00,0,,304
2013-10-7,62,43,24,34,29,23,100,67,30,30.33,30.18,30.03,10,10,7,9,5,,0.00,0,,253
2013-10-8,55,44,32,34,29,19,100,69,26,30.01,29.93,29.87,10,10,10,17,3,22,0.00,1,,254
2013-10-9,51,40,30,36,31,28,100,75,41,30.00,29.94,29.92,10,10,7,21,6,30,0.00,5,Rain,295
2013-10-10,44,38,32,39,34,30,100,87,70,29.91,29.80,29.72,10,10,5,21,5,25,0.00,6,Rain,294
2013-10-11,44,35,26,36,28,19,100,74,39,30.12,29.98,29.77,10,10,10,26,14,34,0.00,2,,295
2013-10-12,44,32,19,30,24,18,100,78,46,30.16,30.12,30.08,10,10,10,9,3,,0.00,3,,306
2013-10-13,44,38,32,37,34,30,100,91,71,30.11,30.05,29.99,10,10,4,20,4,25,0.00,7,Rain-Thunderstorm,307
2013-10-14,41,34,26,34,31,27,100,95,70,30.27,30.11,29.99,10,8,0,17,6,26,0.00,8,Snow,300
2013-10-15,33,30,26,30,27,25,100,92,75,30.33,30.28,30.23,10,10,4,7,2,,0.00,7,,173
2013-10-16,44,30,17,30,23,18,100,80,39,30.22,30.16,30.11,10,9,0,20,6,26,0.00,2,Fog,298
2013-10-17,42,32,23,27,24,21,100,75,49,30.15,30.11,30.05,10,10,7,23,7,33,0.00,5,Snow,297
2013-10-18,42,32,21,27,19,12,100,62,31,30.27,30.20,30.15,10,10,10,22,10,28,0.00,0,,300
2013-10-19,51,38,24,25,22,19,80,59,30,30.21,30.14,30.08,10,10,10,26,11,33,0.00,0,,298
2013-10-20,48,37,26,27,22,18,86,61,30,30.18,30.09,30.05,10,10,10,21,8,29,0.00,2,,302
2013-10-21,53,36,19,27,22,19,100,63,28,30.27,30.23,30.18,10,10,10,21,7,25,0.00,1,,293
2013-10-22,60,44,28,28,25,21,80,59,22,30.32,30.27,30.23,10,10,10,20,8,25,0.00,1,,300
2013-10-23,60,40,19,27,22,14,100,59,17,30.30,30.25,30.21,10,10,10,10,5,16,0.00,2,,295
2013-10-24,60,40,19,27,21,14,100,62,17,30.31,30.27,30.22,10,10,7,8,5,,0.00,1,,297
2013-10-25,60,40,21,27,20,16,93,58,17,30.35,30.29,30.25,10,10,10,17,7,20,0.00,1,,293
2013-10-26,59,39,19,28,21,18,100,61,20,30.43,30.37,30.27,10,10,10,12,5,,0.00,0,,297
2013-10-27,55,36,17,27,19,10,100,59,17,30.26,30.02,29.84,10,10,10,14,5,28,0.00,1,,242
2013-10-28,51,42,33,36,28,19,100,60,37,29.84,29.78,29.67,10,10,7,28,12,40,0.00,6,Rain-Thunderstorm,126
2013-10-29,33,28,23,28,28,23,100,94,70,29.95,29.90,29.85,10,7,0,12,4,,0.00,8,Snow,218
2013-10-30,33,28,24,30,27,25,100,91,75,29.97,29.93,29.89,10,7,1,17,4,22,0.00,8,Snow,296
2013-10-31,41,32,23,30,28,23,100,84,65,30.07,30.01,29.96,10,10,1,25,15,34,0.00,6,Snow,296